Tracking 33197 objects as of 18-Feb-2026
HD Live streaming from Space Station
objects crossing your sky now

STARLINK-32525

Track STARLINK-32525 now!
10-day predictions
STARLINK-32525 is classified as:


NORAD ID: 62121
Int'l Code: 2024-222H
Perigee: 488.5 km
Apogee: 491.7 km
Inclination: 43.0 °
Period: 94.3 minutes
Semi major axis: 6861 km
RCS: Unknown
Launch date: November 26, 2024
Source: (USA)
Launch site: AIR FORCE EASTERN TEST RANGE (AFETR)
Your satellite tracking list
Your tracking list is empty




NASA's NSSDC Master Catalog

Two Line Element Set (TLE):
1 62121U 24222H   26048.88688980  .00031518  00000-0  11489-2 0  9992
2 62121  43.0008 247.7398 0002360 256.9560 103.1029 15.27609486 69732
Source of the keplerian elements: AFSPC